Terminal Aerodrome Forecast
Issued by NWS

Home | Current Version | Previous Version | Text Only | Print | Product List | Glossary On
Versions: 1 2 3 4 5 6 7 8 9 10 11 12 13 14 15 16 17 18 19 20 21 22 23 24 25 26 27
000
FTUS41 KBUF 260300 AAB
TAFJHW
TAF AMD
KJHW 260319Z 2603/2624 24012KT P6SM BKN025
     FM261000 22008KT P6SM SCT007 BKN015
     FM261500 21010KT P6SM BKN035
     FM261800 21012KT P6SM SCT050 SCT200
      AMD LTD TO CLD VIS AND WIND=

USA.gov is the U.S. government's official web portal to all federal, state and local government web resources and services.